Regional Weather Roundup
Issued by NWS Little Rock, AR

Home | Current Version | Previous Version | Graphics & Text | Print | Product List | Glossary On
Versions: 1 2 3 4 5 6 7 8 9 10 11 12 13 14 15 16 17 18 19 20 21 22 23 24 25 26 27 28 29 30 31 32 33 34 35 36 37 38 39 40 41 42 43 44 45 46 47 48 49 50
340
ASUS44 KLZK 280105
RWRLZK

WEATHER ROUNDUP FOR ARKANSAS
NATIONAL WEATHER SERVICE LITTLE ROCK AR
800 PM CDT WED APR 27 2016

NOTE: "FAIR" INDICATES FEW OR NO CLOUDS BELOW 12,000 FEET WITH NO
SIGNIFICANT WEATHER AND/OR OBSTRUCTIONS TO VISIBILITY.

ARZ001-003-010-029-280200-
NORTHWEST ARKANSAS

CITY           SKY/WX    TMP DP  RH WIND       PRES   REMARKS
FAYETTEVILLE   CLEAR     67  55  65 W6        29.70R
FORT SMITH     PTCLDY    75  50  41 W12       29.66R
HARRISON       CLEAR     69  50  50 W6        29.67R
BENTONVILLE    CLEAR     66  48  52 W6        29.70R
ROGERS         CLEAR     67  52  58 W7        29.70R
SILOAM SPGS    CLEAR     66  48  52 W8        29.71R
HIGHFILL       CLEAR     66  54  65 W7        29.69R
SPRINGDALE     CLEAR     70  52  52 W10G17    29.71R
$$

ARZ004-005-016-280200-
NORTH CENTRAL ARKANSAS

CITY           SKY/WX    TMP DP  RH WIND       PRES   REMARKS
BATESVILLE     CLEAR     73  63  68 S3        29.65R
FLIPPIN        CLEAR    N/A N/A N/A SW7       29.62R
MTN HOME       CLEAR     71  52  50 SW5       29.63R
$$

ARZ040-041-280200-
WEST CENTRAL ARKANSAS

CITY           SKY/WX    TMP DP  RH WIND       PRES   REMARKS
MENA           CLEAR     73  55  53 SW3       29.70R
MOUNT IDA      CLEAR     74  54  49 VRB3      29.67R
$$

ARZ009-017-025-026-028-280200-
NORTHEAST ARKANSAS

CITY           SKY/WX    TMP DP  RH WIND       PRES   REMARKS
CORNING          N/A     73  66  78 S10       29.65R
JONESBORO      CLEAR     73  64  73 S8        29.66R
NEWPORT        CLEAR     73  65  76 S8        29.66R
WALNUT RIDGE   CLEAR     72  63  73 S12       29.64S
BLYTHEVILLE    MOCLDY    74  62  66 S9        29.67R
$$

ARZ022-023-033-042-044-280200-
CENTRAL ARKANSAS

CITY           SKY/WX    TMP DP  RH WIND       PRES   REMARKS
LITTLE ROCK    PTCLDY    76  57  51 SW6       29.66R
N LITTLE ROCK    N/A     75  58  54 W3        29.65R
JACKSONVILLE   CLEAR     77  58  50 SW8       29.65R
SEARCY         CLEAR     73  64  73 S5        29.66S
HOT SPRINGS    CLEAR     76  57  51 W5        29.68R
RUSSELLVILLE   CLEAR     74  54  49 W3        29.65R
$$

ARZ036-280200-
EAST ARKANSAS

CITY           SKY/WX    TMP DP  RH WIND       PRES   REMARKS
WEST MEMPHIS   CLEAR     73  65  75 S13       29.68R
$$

ARZ050-053-066-070-073-280200-
SOUTHWEST ARKANSAS

CITY           SKY/WX    TMP DP  RH WIND       PRES   REMARKS
ARKADELPHIA    FAIR      73  72  97 CALM      29.68R
CAMDEN         CLEAR     73  64  73 CALM      29.67R
TEXARKANA      CLEAR     78  57  48 W6        29.69R
EL DORADO      CLEAR     73  68  84 CALM      29.69R
DE QUEEN       CLEAR     72  55  55 CALM      29.67R
$$

ARZ056-057-069-280200-
SOUTHEAST ARKANSAS

CITY           SKY/WX    TMP DP  RH WIND       PRES   REMARKS
PINE BLUFF     CLEAR     73  66  78 S6        29.68R
STUTTGART      PTCLDY    75  63  64 S9        29.68R
MONTICELLO     CLEAR     73  67  81 SE3       29.69R

$$






USA.gov is the U.S. government's official web portal to all federal, state and local government web resources and services.